Regional Weather Roundup
Issued by NWS

Home | Current Version | Previous Version | Graphics & Text | Print | Product List | Glossary On
Versions: 1 2 3 4 5 6 7 8 9 10 11 12 13 14 15 16 17 18 19 20 21 22 23 24 25 26 27 28 29 30 31 32 33 34 35 36 37 38 39 40 41 42 43 44 45 46 47 48 49 50
321
ASUS43 KLOT 210708
RWRIL

ILLINOIS REGIONAL WEATHER ROUNDUP
NATIONAL WEATHER SERVICE CHICAGO/ROMEOVILLE IL
100 AM CST TUE NOV 21 2017

NOTE: "FAIR" INDICATES FEW OR NO CLOUDS BELOW 12,000 FEET WITH NO
SIGNIFICANT WEATHER AND/OR OBSTRUCTIONS TO VISIBILITY.

* THESE STATIONS ARE NOT UNDER NWS QUALITY CONTROL. THEY ALSO MAY NOT
  REPORT WEATHER SUCH AS PRECIPITATION OR FOG.

ILZ001-002-007-009-015-016-024-210800-
NORTHWEST ILLINOIS

CITY           SKY/WX    TMP DP  RH WIND       PRES   REMARKS
MOLINE         CLOUDY    47  31  53 SW7       29.65F
STERLING*      PTCLDY    45  32  60 SW7       29.65F
SAVANNA*       CLOUDY    44  32  62 S8        29.63F
$$

ILZ003-004-008-010-011-017-018-210800-
NORTH CENTRAL ILLINOIS

CITY           SKY/WX    TMP DP  RH WIND       PRES   REMARKS
ROCKFORD       CLOUDY    46  30  53 SW16      29.64F
FREEPORT*      PTCLDY    43  32  64 SW15      29.63F
ROCHELLE*      PTCLDY    43  32  65 SW12G21   29.66S
DE KALB*       CLOUDY    40  33  76 SW15      29.66F
PERU*          CLOUDY    43  30  59 SW20G25   29.68F
$$

ILZ005-006-012>014-019>023-210800-
NORTHEAST ILLINOIS

CITY           SKY/WX    TMP DP  RH WIND       PRES   REMARKS
CHICAGO-OHARE  MOCLDY    44  31  60 SW21G31   29.66F
CHICAGO-MIDWAY MOCLDY    43  31  62 SW17      29.69F
AURORA         CLOUDY    43  32  65 S20       29.68F
LANSING*       PTCLDY    41  32  70 SW22G31   29.72F
JOLIET*        MOCLDY    44  33  64 S15G21    29.71S
WAUKEGAN       CLOUDY    45  31  58 SW17G31   29.61F
DUPAGE AIRPORT CLOUDY    43  32  65 S18G26    29.66F
KANKAKEE*      CLOUDY    42  30  64 SW20G28   29.76F
WHEELING       CLOUDY    45  32  60 S16G24    29.66F
MORRIS*        CLOUDY    43  32  64 SW18      29.69F
ROMEOVILLE*    MOCLDY    42  32  67 SW22G28   29.69F
NORTHERLY ISL    N/A     43  29  58 S20         N/A
$$

LMZ740>746-210800-
SOUTHERN LAKE MICHIGAN

STATION/POSITION SKY/WX   TEMP    WIND        PRES    VSBY  WAVE
                          AIR SEA DIR/SP/G                  HT/PER
                          (F)     (DEG/KT/KT) (MB)    (MI)  (FT/S)
SOUTHERN BUOY              47 48  230/ 27/ 31 1002.7F         9/ 7
HARRISON CRIB              44     210/ 32/ 38   N/A
BURNHAM HARBOR             43     180/ 15/ 20   N/A
CALUMET HARBOR             43     190/ 13/ 20 1005.1F
BURNS HARBOR               45     200/ 24     1006.8F
MICHIGAN CITY              44     180/ 22/ 28   N/A
$$

ILZ025>027-034>036-040-047-049-050-058-095>099-210800-
WEST-CENTRAL ILLINOIS

CITY           SKY/WX    TMP DP  RH WIND       PRES   REMARKS
QUINCY         CLEAR     48  30  49 S17       29.74F
GALESBURG*     CLOUDY    44  33  65 S13       29.70F
MACOMB*        MOCLDY    49  32  52 SW17G24   29.73F
JACKSONVILLE*  CLOUDY    45  30  55 S12       29.78F
PITTSFIELD*    CLOUDY    49  31  49 S14       29.78F
$$

ILZ028>032-037-038-041>044-048-051>054-059>061-210800-
CENTRAL ILLINOIS

CITY           SKY/WX    TMP DP  RH WIND       PRES   REMARKS
PONTIAC        CLOUDY    44  33  64 S24G33    29.73F
BLOOMINGTON    CLOUDY    41  31  67 S26       29.75F
DECATUR        PTCLDY    43  30  60 S23G31    29.82F
PEORIA         CLOUDY    43  32  65 S17       29.73F
LACON*         CLOUDY    45  31  58 SW12G23   29.70F
LINCOLN*       CLOUDY    43  33  66 S12G21    29.78F
SPRINGFIELD    CLOUDY    43  32  65 S15       29.80F
TAYLORVILLE    CLOUDY    41  31  69 S16G23    29.83F
$$

ILZ033-039-045-046-055>057-062-063-210800-
EAST-CENTRAL ILLINOIS

CITY           SKY/WX    TMP DP  RH WIND       PRES   REMARKS
CHAMPAIGN      CLOUDY    40  30  67 S23       29.82F
DANVILLE*      CLOUDY    39  28  63 S17       29.81F WCI  30
RANTOUL*       CLOUDY    43  32  65 SW17G24   29.80F
MATTOON        PTCLDY    40  28  62 S12       29.86F
PARIS*         CLEAR     39  29  67 S17       29.88F WCI  30
$$

ILZ079-100>102-210800-
SOUTHWEST ILLINOIS

CITY           SKY/WX    TMP DP  RH WIND       PRES   REMARKS
ALTON          CLOUDY    42  32  67 S12       29.86F
BELLEVILLE     MOCLDY    43  30  60 SW10      29.87F
CAHOKIA*       CLOUDY    43  29  57 S6        29.87F
SPARTA*        CLOUDY    42  28  58 S12       29.93S
$$

ILZ064>066-069>071-074>076-080>082-084>086-088>090-092>094-210800-
SOUTH-CENTRAL ILLINOIS

CITY           SKY/WX    TMP DP  RH WIND       PRES   REMARKS
CARBONDALE     CLOUDY    41  28  60 S7        29.95F
CAIRO*         CLEAR     39  28  65 S5        30.01R
EFFINGHAM*     CLOUDY    42  29  58 S8        29.92F
MARION         PTCLDY    38  29  72 S8        29.97S WCI  32
MT. VERNON     CLOUDY    39  30  70 S9        29.94F WCI  33
CENTRALIA*     PTCLDY    41  30  65 S10       29.91F
SALEM*         CLOUDY    43  28  54 S10       29.91F
METROPOLIS*    CLEAR     40  27  61 S6        30.01S
$$

ILZ067-068-072-073-078-083-087-091-210800-
SOUTHEAST ILLINOIS

CITY           SKY/WX    TMP DP  RH WIND       PRES   REMARKS
LAWRENCEVILLE  CLOUDY    37  27  67 S5        29.96S WCI  33
FLORA*         CLOUDY    36  29  76 S7        29.94S WCI  30
FAIRFIELD*     PTCLDY    38  28  65 CALM      29.94F
HARRISBURG*    CLEAR     39  28  64 SW6       29.99S
ROBINSON*      CLOUDY    36  26  68 S8        29.94F WCI  29
CARMI*         CLEAR     39  27  62 SW6       29.98R WCI  34
$$

ABBREVIATIONS USED IN REMARKS
   TC - TEMPERATURE IN CELSIUS
  WCI - WIND CHILL INDEX
   HX - HEAT INDEX
  VSB - VISIBILITY
$$





USA.gov is the U.S. government's official web portal to all federal, state and local government web resources and services.